Date String (YYYY-MM-DD hh:mm:ss) UTC,Instrument flags,Ambient pressure (hPa),Sample flow (lpm),Bypass flow (lpm),Sample temperature (°C),Ambient temperature (°C),ASC tube jacket temperature (°C),LED temperature (°C),Box temperature (°C),Sample RH (%),Span deviation,Mass concentration (μg/m³),Mass concentration (μg/m³),Mass concentration (μg/m³)
DateTimeUTC,F1_M11,P_M11,Q1_M11,Q2_M11,T1_M11,T2_M11,T3_M11,T4_M11,T5_M11,U1_M11,ZSPAN_M11,X0_M11,X2_M11,X1_M11
2022-08-13 23:00:00,,0828.7,5.00,0.00,29.6,28.2,00.0,38.3,31.4,33.8,0000.0,0017.05,0007.48,0005.97
2022-08-13 23:01:00,,0828.7,4.99,0.00,29.6,27.9,00.0,38.2,31.2,33.8,0000.0,0018.05,0007.53,0005.98
2022-08-13 23:02:00,,0828.6,5.01,0.00,29.6,27.4,00.0,38.2,31.1,34.0,0000.0,0019.75,0007.53,0006.00
2022-08-13 23:03:00,,0828.7,5.00,0.00,29.5,27.2,00.0,38.2,31.1,34.2,0000.0,0019.73,0007.49,0006.00
2022-08-13 23:04:00,,0828.7,5.00,0.00,29.4,27.2,00.0,38.2,31.0,34.2,0000.0,0019.88,0007.46,0006.01
2022-08-13 23:05:00,,0829.2,4.99,0.00,29.4,27.4,00.0,38.2,31.0,34.0,0000.0,0019.92,0007.53,0006.03
2022-08-13 23:06:00,,0829.1,5.01,0.00,29.4,27.6,00.0,38.2,31.0,34.1,0000.0,0018.80,0007.45,0006.04
2022-08-13 23:07:00,,0828.9,4.99,0.00,29.4,27.8,00.0,38.2,31.1,34.2,0000.0,0018.78,0007.52,0006.05
2022-08-13 23:08:00,,0828.9,5.00,0.00,29.5,28.0,00.0,38.2,31.2,34.0,0000.0,0019.61,0007.58,0006.05
2022-08-13 23:09:00,,0829.0,5.00,0.00,29.5,28.2,00.0,38.2,31.3,34.1,0000.0,0019.09,0007.62,0006.07
2022-08-13 23:10:00,,0829.0,5.00,0.00,29.5,28.0,00.0,38.2,31.2,34.0,0000.0,0020.22,0007.65,0006.08
2022-08-13 23:11:00,,0829.1,5.01,0.00,29.5,27.5,00.0,38.1,31.0,34.0,0000.0,0021.45,0007.67,0006.08
2022-08-13 23:12:00,,0829.1,5.00,0.00,29.4,27.2,00.0,38.1,31.0,34.2,0000.0,0020.74,0007.70,0006.09
2022-08-13 23:13:00,,0829.1,5.00,0.00,29.3,27.2,00.0,38.1,30.9,34.6,0000.0,0018.84,0007.71,0006.08
2022-08-13 23:14:00,,0829.2,5.00,0.00,29.3,27.4,00.0,38.1,30.9,34.7,0000.0,0019.58,0007.76,0006.09
2022-08-13 23:15:00,,0829.2,5.00,0.00,29.3,27.6,00.0,38.1,31.0,34.7,0000.0,0019.30,0007.71,0006.08
2022-08-13 23:16:00,,0829.2,5.00,0.00,29.3,27.8,00.0,38.1,31.1,34.7,0000.0,0019.14,0007.66,0006.07
2022-08-13 23:17:00,,0829.3,4.99,0.00,29.4,28.0,00.0,38.1,31.2,34.8,0000.0,0019.40,0007.64,0006.07
2022-08-13 23:18:00,,0829.2,5.00,0.00,29.4,28.2,00.0,38.1,31.3,34.6,0000.0,0019.36,0007.59,0006.07
2022-08-13 23:19:00,,0829.2,5.00,0.00,29.5,28.2,00.0,38.1,31.3,34.4,0000.0,0018.35,0007.52,0006.06
2022-08-13 23:20:00,,0829.2,4.99,0.00,29.4,27.7,00.0,38.1,31.1,34.5,0000.0,0017.96,0007.49,0006.05
2022-08-13 23:21:00,,0829.2,5.00,0.00,29.4,27.3,00.0,38.1,31.0,34.5,0000.0,0018.05,0007.46,0006.04
2022-08-13 23:22:00,,0829.2,5.00,0.00,29.3,27.2,00.0,38.0,31.0,34.4,0000.0,0018.16,0007.46,0006.05
2022-08-13 23:23:00,,0829.1,5.00,0.00,29.3,27.3,00.0,38.0,30.9,34.3,0000.0,0018.23,0007.41,0006.06
2022-08-13 23:24:00,,0829.2,5.00,0.00,29.3,27.5,00.0,38.0,31.0,34.6,0000.0,0018.16,0007.43,0006.06
2022-08-13 23:25:00,,0829.2,5.00,0.00,29.3,27.7,00.0,38.0,31.1,34.4,0000.0,0017.07,0007.42,0006.06
2022-08-13 23:26:00,,0829.3,5.00,0.00,29.3,27.9,00.0,38.0,31.2,34.4,0000.0,0017.23,0007.44,0006.06
2022-08-13 23:27:00,,0829.2,5.01,0.00,29.3,28.1,00.0,38.1,31.2,34.3,0000.0,0017.75,0007.48,0006.07
2022-08-13 23:28:00,,0829.2,5.00,0.00,29.4,28.1,00.0,38.1,31.2,34.2,0000.0,0018.57,0007.53,0006.08
2022-08-13 23:29:00,,0829.3,4.99,0.00,29.4,27.6,00.0,38.0,31.0,34.0,0000.0,0019.10,0007.55,0006.08
2022-08-13 23:30:00,,0829.3,5.00,0.00,29.3,27.2,00.0,38.0,30.9,34.3,0000.0,0019.84,0007.53,0006.08
2022-08-13 23:31:00,,0829.3,5.00,0.00,29.3,27.1,00.0,38.0,30.9,34.6,0000.0,0020.05,0007.50,0006.07
2022-08-13 23:32:00,,0829.3,5.00,0.00,29.2,27.2,00.0,38.0,30.9,34.7,0000.0,0019.36,0007.46,0006.04
2022-08-13 23:33:00,,0829.2,4.99,0.00,29.2,27.4,00.0,38.0,30.9,34.8,0000.0,0018.02,0007.42,0006.01
2022-08-13 23:34:00,,0829.3,5.00,0.00,29.2,27.6,00.0,38.0,31.0,34.6,0000.0,0018.41,0007.45,0005.98
2022-08-13 23:35:00,,0829.2,5.00,0.00,29.2,27.8,00.0,38.0,31.1,34.8,0000.0,0018.90,0007.44,0005.96
2022-08-13 23:36:00,,0829.2,4.99,0.00,29.3,28.0,00.0,38.0,31.2,35.0,0000.0,0019.57,0007.42,0005.94
2022-08-13 23:37:00,,0829.2,5.00,0.00,29.3,28.2,00.0,38.0,31.3,34.7,0000.0,0020.33,0007.46,0005.91
2022-08-13 23:38:00,,0829.2,5.01,0.00,29.4,28.1,00.0,38.0,31.2,34.5,0000.0,0020.77,0007.45,0005.88
2022-08-13 23:39:00,,0829.2,5.01,0.00,29.3,27.5,00.0,38.0,31.0,34.5,0000.0,0019.85,0007.44,0005.86
2022-08-13 23:40:00,,0829.3,5.01,0.00,29.3,27.2,00.0,37.9,31.0,34.8,0000.0,0019.49,0007.44,0005.85
2022-08-13 23:41:00,,0829.3,5.00,0.00,29.2,27.1,00.0,37.9,30.9,35.1,0000.0,0019.92,0007.48,0005.82
2022-08-13 23:42:00,,0829.2,5.00,0.00,29.3,27.3,00.0,37.9,30.9,34.6,0000.0,0020.52,0007.47,0005.80
2022-08-13 23:43:00,,0829.3,5.00,0.00,29.4,27.4,00.0,37.9,31.0,34.2,0000.0,0020.92,0007.44,0005.79
2022-08-13 23:44:00,,0829.2,5.00,0.00,29.5,27.6,00.0,37.9,31.1,34.0,0000.0,0020.88,0007.42,0005.79
2022-08-13 23:45:00,,0829.2,5.00,0.00,29.5,27.9,00.0,38.0,31.2,33.8,0000.0,0020.43,0007.38,0005.77
2022-08-13 23:46:00,,0829.2,5.01,0.00,29.6,28.1,00.0,38.0,31.3,34.0,0000.0,0019.91,0007.36,0005.75
2022-08-13 23:47:00,,0829.2,4.99,0.00,29.6,28.2,00.0,38.1,31.3,33.3,0000.0,0019.35,0007.34,0005.73
2022-08-13 23:48:00,,0829.2,5.01,0.00,29.7,28.2,00.0,38.1,31.3,33.2,0000.0,0018.94,0007.25,0005.72
2022-08-13 23:49:00,,0829.2,5.00,0.00,29.6,27.6,00.0,38.1,31.1,30.7,0000.0,0018.07,0007.18,0005.69
2022-08-13 23:50:00,,0829.2,4.99,0.00,29.6,27.2,00.0,38.1,31.0,30.0,0000.0,0017.60,0007.01,0005.59
2022-08-13 23:51:00,,0829.2,5.01,0.00,29.5,27.2,00.0,38.1,31.0,31.3,0000.0,0017.37,0006.89,0005.52
2022-08-13 23:52:00,,0829.3,5.00,0.00,29.4,27.3,00.0,38.1,30.9,31.9,0000.0,0015.97,0006.81,0005.48
2022-08-13 23:53:00,,0829.4,4.99,0.00,29.4,27.4,00.0,38.1,31.0,31.6,0000.0,0015.24,0006.79,0005.44
2022-08-13 23:54:00,,0829.3,5.01,0.00,29.4,27.6,00.0,38.1,31.1,33.1,0000.0,0015.14,0006.75,0005.41
2022-08-13 23:55:00,,0829.4,5.00,0.00,29.4,27.9,00.0,38.1,31.1,30.1,0000.0,0015.09,0006.64,0005.35
2022-08-13 23:56:00,,0829.4,5.00,0.00,29.5,28.1,00.0,38.1,31.2,30.1,0000.0,0014.26,0006.47,0005.24
2022-08-13 23:57:00,,0829.5,4.99,0.00,29.5,28.2,00.0,38.1,31.3,27.5,0000.0,0014.04,0006.22,0005.09
2022-08-13 23:58:00,,0829.4,5.00,0.00,29.6,28.2,00.0,38.1,31.3,27.1,0000.0,0014.00,0005.97,0004.91
2022-08-13 23:59:00,,0829.3,5.00,0.00,29.5,27.7,00.0,38.1,31.1,27.6,0000.0,0012.88,0005.72,0004.72
